[[[{"header":{"parameterUnit":"kt","parameterCategory":2,"dx":1,"dy":1,"la1":30.253999710083008,"la2":30.299108505249023,"lo1":-89.0895004272461,"lo2":-89.04439544677734,"nx":28,"ny":28,"refTime":"2022-10-27T21:00:00:Z","depth":0,"parameterNumber":1,"parameterNumberName":"U-component_of_WINDS"},"data":[-14.2825,-14.308,-14.315,-14.3473,-14.3591,-14.3822,-14.3927,-14.407,-14.4202,-14.4487,-14.4664,-14.476,-14.4917,-14.5144,-14.5338,-14.5376,-14.5449,-14.5491,-14.5527,-14.5282,-14.5252,-14.5223,-14.5164,-14.5509,-14.551,-14.5766,-14.5768,-14.577,-14.2645,-14.2763,-14.2956,-14.3187,-14.3352,-14.3356,-14.354,-14.3676,-14.3883,-14.4048,-14.4225,-14.4481,-14.4692,-14.4838,-14.5052,-14.5172,-14.5182,-14.5224,-14.521,-14.5234,-14.4978,-14.4914,-14.5213,-14.5213,-14.5212,-14.5212,-14.5212,-14.5212,-14.2333,-14.2483,-14.2662,-14.2871,-14.3007,-14.3162,-14.3317,-14.343,-14.3617,-14.3848,-14.3895,-14.413,-14.4305,-14.4596,-14.4709,-14.4894,-14.4858,-14.4924,-14.4938,-14.4951,-14.4954,-14.4565,-14.4935,-14.4935,-14.4934,-14.4934,-14.4933,0,-14.2122,-14.217,-14.2357,-14.2566,-14.2721,-14.2889,-14.3054,-14.3153,-14.3272,-14.3422,-14.3644,-14.3783,-14.4059,-14.4273,-14.4489,-14.4593,-14.4602,-14.4615,-14.4658,-14.4632,-14.4584,-14.4604,-14.4176,-14.4599,-14.4597,-14.4595,-14.4593,-14.4592,-14.1804,-14.1973,-14.2193,-14.2316,-14.2421,-14.2619,-14.2749,-14.2842,-14.2976,-14.3192,-14.3321,-14.3539,-14.3716,-14.4061,-14.4185,-14.4391,-14.4394,-14.4548,-14.4424,-14.4398,-14.4387,-14.4372,-14.4387,-14.4565,-14.4569,-14.4571,-14.4574,0,-14.1617,-14.1726,-14.2009,-14.2209,-14.2265,-14.2437,-14.2606,-14.2761,-14.2852,-14.3076,-14.3134,-14.3275,-14.349,-14.3592,-14.3858,-14.3904,-14.4186,-14.4191,-14.4126,-14.4128,-14.427,-14.4252,-14.4727,-14.4792,-14.4445,-14.4448,-14.4451,0,-14.1383,-14.1601,-14.1749,-14.1907,-14.2154,-14.2238,-14.248,-14.258,-14.2731,-14.2908,-14.2938,-14.3104,-14.3207,-14.3388,-14.3456,-14.3706,-14.3758,-14.3804,-14.3817,-14.3795,-14.3788,-14.3857,-14.3836,-14.3851,-14.3848,-14.3846,-14.3844,0,-14.107,-14.1407,-14.1666,-14.1759,-14.199,-14.2111,-14.2213,-14.238,-14.2506,-14.2687,-14.2769,-14.2975,-14.3084,-14.3243,-14.3325,-14.3237,-14.3636,-14.3531,-14.3681,-14.3679,-14.3754,-14.3746,-14.4153,-14.3841,-14.384,-14.3839,-14.3838,0,-14.0892,-14.1073,-14.1435,-14.1626,-14.171,-14.1882,-14.2086,-14.2257,-14.2432,-14.2484,-14.2627,-14.2654,-14.2885,-14.2773,-14.309,-14.2951,-14.3058,-14.3125,-14.3138,-14.3153,-14.3022,-14.3226,-14.3612,-14.3651,-14.3184,-14.3179,-14.3174,0,-14.0501,-14.0893,-14.0966,-14.1307,-14.15,-14.1516,-14.171,-14.1862,-14.1948,-14.2124,-14.2219,-14.2418,-14.2357,-14.2431,-14.2578,-14.268,-14.2863,-14.2661,-14.2906,-14.2914,-14.2849,-14.3209,-14.3234,-14.3519,-14.3106,-14.3113,-14.3118,0,-14.0207,-14.0485,-14.054,-14.0647,-14.0862,-14.1024,-14.1247,-14.1462,-14.1574,-14.1745,-14.1929,-14.2217,-14.2179,-14.2303,-14.2344,-14.2491,-14.2742,-14.2429,-14.2434,-14.2475,-14.3082,-14.3105,-14.3153,-14.2739,-14.2747,-14.2754,-14.3064,0,-13.99,-14.011,-14.0268,-14.0502,-14.0644,-14.0863,-14.0964,-14.11,-14.1125,-14.1207,-14.1484,-14.1633,-14.185,-14.1932,-14.1957,-14.2262,-14.2223,-14.218,-14.2068,-14.2307,-14.241,-14.2454,-14.1906,-14.1903,-14.1901,-14.1899,0,0,-13.9493,-13.9794,-13.9862,-14.0079,-14.02,-14.0209,-14.0433,-14.0554,-14.0794,-14.0878,-14.0819,-14.1241,-14.1362,-14.1686,-14.1769,-14.1859,-14.192,-14.1831,-14.2194,-14.2227,-14.2257,-14.2367,-14.241,-14.1895,-14.1894,-14.1894,-14.1893,0,-13.9398,-13.9526,-13.9748,-13.9876,-14.0066,-14.0141,-14.0196,-14.0383,-14.0445,-14.0717,-14.0715,-14.0893,-14.1227,-14.1354,-14.1463,-14.18,-14.1783,-14.186,-14.2004,-14.2169,-14.2204,-14.2236,-14.235,-14.2391,-14.1887,-14.1888,-14.1888,0,-13.912,-13.926,-13.9378,-13.9657,-13.978,-13.9978,-13.9889,-14.0103,-14.025,-14.0241,-14.0508,-14.0604,-14.0783,-14.1078,-14.1214,-14.1162,-14.1651,-14.1516,-14.1533,-14.1546,-14.171,-14.1753,-14.1791,-14.1289,-14.1286,-14.1284,0,0,-13.9023,-13.9218,-13.9391,-13.9643,-13.9721,-13.9835,-13.995,-13.9984,-14.0145,-14.0209,-14.0328,-14.0484,-14.0679,-14.0805,-14.0992,-14.1304,-14.1343,-14.1438,-14.1466,-14.1489,-14.1514,-14.1684,-14.1727,-14.1274,-14.1274,-14.1274,0,0,-13.8975,-13.9185,-13.918,-13.9485,-13.9639,-13.9823,-13.9972,-13.9971,-14.0148,-14.0133,-14.0199,-14.0243,-14.0521,-14.0613,-14.0476,-14.0952,-14.0842,-14.0876,-14.0879,-14.0917,-14.0945,-14.0912,-14.0397,0,0,0,0,0,-13.8924,-13.9159,-13.9153,-13.9219,-13.9568,-13.9828,-13.9873,-13.9932,-13.9852,-13.997,-14.0069,-14.0045,-14.0552,-14.0433,-14.0496,-14.0644,-14.1152,-14.1174,-14.1194,-14.1273,-14.131,-14.1342,0,0,0,0,0,0,-13.8951,-13.903,-13.9147,-13.934,-13.9419,-13.982,-13.9697,-13.972,-13.9841,-13.9833,-14.0027,-14.0051,-14.0106,-14.0404,-14.046,-14.06,-14.0378,-14.1161,-14.1179,-14.1196,-14.1286,-14.1316,-14.1343,0,0,0,0,0,-13.8972,-13.9036,-13.958,-13.9337,-13.9406,-13.9542,-13.9688,-13.9706,-13.9801,-13.9953,-13.9976,-13.9835,-14.0109,-14.016,-14.0438,-14.0573,-14.034,-14.0361,-14.1173,-14.1187,-14.12,-14.1301,0,0,0,0,0,0,-13.8987,-13.9054,-13.9595,-13.9619,-13.9251,-13.952,-13.9564,-13.9695,-13.9915,-13.994,-13.9763,-13.9753,-14.0114,-14.0152,-14.0192,-14.056,-14.0308,-14.033,-14.0343,-14.1184,-14.1195,-14.1205,0,0,0,0,0,0,-13.902,-13.9074,-13.9607,-13.9496,-13.9507,-13.95,-13.954,-13.9784,-13.9917,-13.9712,-13.9711,-13.9756,-14.0053,-14.0148,-14.0179,-14.0558,-14.0284,-14.0304,-14.0318,-14.0327,-14.1193,-14.1202,0,0,0,0,0,0,-13.9044,-13.909,-13.949,-13.9498,-13.9507,-13.9771,-13.9717,-14.0071,-13.9823,-13.9702,-13.9802,-13.9792,-14.005,-14.0082,-14.017,-14.0536,-14.0552,-14.0285,-14.0299,-14.0308,-14.0315,0,0,0,0,0,0,0,-13.9063,-13.8739,-13.9459,-13.9501,-13.9508,-13.9832,-13.9839,-13.9845,-13.9821,-13.9812,-13.9804,-13.9796,-14.0169,-14.0191,-14.0213,-14.0518,0,0,-14.0283,-14.0293,0,0,0,0,0,0,0,0,-13.8721,-13.8735,-13.9459,-13.9464,-13.9469,-13.9833,-13.9839,-13.9844,-13.9819,-13.9813,-13.9806,-13.98,-14.0175,-14.0193,-14.0211,0,0,0,0,0,0,0,0,0,0,0,0,0,0,0,-13.946,-13.9464,0,-13.9834,-13.9838,-13.9843,-13.9818,-13.9813,-13.9807,-13.9802,-14.018,-14.0195,-14.021,0,0,0,0,0,0,0,0,0,0,0,0,0,0,0,0,0,0,0,0,0,0,0,0,0,0,0,0,0,0,0,0,0,0,0,0,0,0,0,0,0,0,0,0,0,0,0,0,0,0,0,0,0,0,0,0,0,0,0,0,0,0,0,0,0,0,0,0,0]}],[{"header":{"parameterUnit":"kt","parameterCategory":2,"dx":1,"dy":1,"la1":30.253999710083008,"la2":30.299108505249023,"lo1":-89.0895004272461,"lo2":-89.04439544677734,"nx":28,"ny":28,"refTime":"2022-10-27T21:00:00:Z","depth":0,"parameterNumber":2,"parameterNumberName":"V-component_of_WINDS"},"data":[2.14,2.15,2.1517,2.1639,2.1675,2.1762,2.1799,2.1849,2.1892,2.2,2.2065,2.2092,2.2143,2.2226,2.2298,2.2309,2.2341,2.2366,2.2375,2.2245,2.2228,2.2213,2.2191,2.2371,2.2371,2.251,2.2511,2.2512,2.1311,2.1347,2.1415,2.1492,2.1552,2.1539,2.1599,2.1651,2.1729,2.1782,2.1846,2.1942,2.202,2.2062,2.214,2.219,2.219,2.2211,2.2211,2.222,2.208,2.2057,2.2211,2.2211,2.2211,2.2211,2.2211,2.2211,2.1155,2.1213,2.1268,2.1342,2.1385,2.1437,2.1496,2.1526,2.1594,2.1675,2.1679,2.1769,2.1826,2.1926,2.1963,2.2035,2.2014,2.2043,2.2052,2.206,2.207,2.1878,2.2047,2.2047,2.2047,2.2046,2.2046,0,2.1046,2.1056,2.112,2.1191,2.1245,2.1301,2.1355,2.1391,2.1415,2.1469,2.155,2.1599,2.1697,2.1776,2.185,2.1883,2.1877,2.1875,2.1897,2.19,2.1894,2.1905,2.1682,2.1871,2.187,2.1869,2.1868,2.1867,2.0895,2.0958,2.1022,2.1065,2.1098,2.1167,2.1212,2.1227,2.1275,2.1344,2.1394,2.1471,2.1535,2.1661,2.1696,2.1769,2.1767,2.1839,2.1778,2.1778,2.1776,2.1775,2.1784,2.1852,2.1854,2.1855,2.1857,0,2.081,2.0833,2.0935,2.0991,2.1007,2.1073,2.1122,2.1179,2.1201,2.1285,2.1305,2.134,2.1418,2.1441,2.1534,2.1544,2.1662,2.1654,2.1645,2.1646,2.1717,2.1713,2.1932,2.1964,2.1771,2.1773,2.1774,0,2.0693,2.0774,2.0804,2.0862,2.0954,2.0966,2.1058,2.1085,2.1131,2.1197,2.119,2.1252,2.127,2.1337,2.1351,2.145,2.1465,2.1481,2.1485,2.1485,2.1484,2.1514,2.1508,2.1482,2.1481,2.148,2.1479,0,2.0561,2.0669,2.0762,2.0791,2.0857,2.0901,2.093,2.098,2.1023,2.1082,2.1112,2.1179,2.1217,2.1271,2.1289,2.1248,2.1408,2.1355,2.1425,2.1425,2.1462,2.146,2.1644,2.1478,2.1478,2.1477,2.1477,0,2.047,2.0527,2.0656,2.0713,2.074,2.08,2.0868,2.0924,2.0978,2.0991,2.1037,2.1035,2.1118,2.1065,2.1182,2.1124,2.1163,2.1183,2.1189,2.1202,2.1143,2.1251,2.1419,2.1441,2.1209,2.1207,2.1205,0,2.0317,2.0451,2.0461,2.0584,2.0649,2.0638,2.0706,2.0752,2.0774,2.0834,2.0858,2.0926,2.0891,2.0915,2.0969,2.0998,2.1074,2.0988,2.1082,2.1085,2.1074,2.1228,2.125,2.1379,2.1177,2.118,2.1182,0,2.02,2.0276,2.0296,2.0331,2.039,2.0443,2.0519,2.0588,2.0629,2.0678,2.0746,2.0838,2.0817,2.0856,2.0861,2.0916,2.1023,2.0886,2.0888,2.0915,2.1161,2.1183,2.1205,2.1015,2.1018,2.1021,2.1159,0,2.0069,2.0136,2.0191,2.0261,2.0304,2.0379,2.04,2.0444,2.0444,2.0465,2.0561,2.0601,2.0672,2.0698,2.0698,2.0815,2.08,2.0775,2.0728,2.0826,2.0873,2.0891,2.0657,2.0656,2.0655,2.0654,0,0,1.992,2.0015,2.0022,2.0094,2.0132,2.0118,2.0197,2.0231,2.0301,2.0329,2.0302,2.0439,2.0472,2.0587,2.0619,2.0645,2.067,2.0633,2.0778,2.0792,2.0804,2.0854,2.0872,2.0652,2.0652,2.0651,2.0651,0,1.9876,1.9907,1.9982,2.0018,2.0071,2.0088,2.0106,2.0157,2.0173,2.0263,2.0252,2.0311,2.0417,2.0457,2.0491,2.0619,2.0608,2.0637,2.0702,2.0766,2.0781,2.0795,2.0846,2.0864,2.0648,2.0648,2.0649,0,1.9769,1.9805,1.9842,1.9922,1.9956,2.0021,1.9977,2.0045,2.0095,2.0075,2.0165,2.019,2.0243,2.0345,2.0392,2.0369,2.0552,2.0494,2.0502,2.0509,2.0572,2.059,2.0606,2.0394,2.0393,2.0392,0,0,1.9729,1.9789,1.9831,1.9914,1.9936,1.9961,1.9996,2.0,2.0046,2.0064,2.0096,2.0143,2.0205,2.0246,2.0305,2.0413,2.0427,2.0462,2.0474,2.0484,2.0496,2.0562,2.0579,2.0389,2.0389,2.0389,0,0,1.971,1.9762,1.9753,1.9851,1.9895,1.9942,1.9993,1.9984,2.0038,2.0032,2.0041,2.0054,2.0149,2.0173,2.0123,2.0289,2.0241,2.0254,2.027,2.0285,2.0297,2.0291,2.0083,0,0,0,0,0,1.9676,1.9755,1.9747,1.9766,1.9866,1.9947,1.996,1.9969,1.9936,1.9977,2.0002,1.9986,2.0149,2.0104,2.0124,2.0181,2.0342,2.035,2.0358,2.0405,2.0421,2.0434,0,0,0,0,0,0,1.9683,1.9707,1.9745,1.9795,1.9817,1.9944,1.9891,1.9896,1.9932,1.9928,1.9981,1.9987,1.9997,2.0095,2.0112,2.0167,2.0077,2.0345,2.0352,2.0359,2.041,2.0423,2.0434,0,0,0,0,0,1.9689,1.9708,1.9865,1.9794,1.9814,1.9845,1.9888,1.9891,1.992,1.9958,1.9963,1.9923,1.9998,2.0013,2.0105,2.0159,2.0065,2.0072,2.035,2.0355,2.036,2.0417,0,0,0,0,0,0,1.9694,1.9713,1.9869,1.9876,1.9763,1.9838,1.985,1.9888,1.9948,1.9954,1.99,1.9895,2.0,2.0012,2.0024,2.0155,2.0055,2.0062,2.0066,2.0354,2.0358,2.0362,0,0,0,0,0,0,1.9703,1.9718,1.9873,1.9834,1.9836,1.9832,1.9842,1.992,1.9949,1.9886,1.9885,1.9897,1.9982,2.0011,2.002,2.0141,2.0048,2.0054,2.0059,2.0061,2.0358,2.0361,0,0,0,0,0,0,1.9709,1.9723,1.9832,1.9834,1.9835,1.9908,1.9901,2.0003,1.9914,1.9884,1.9907,1.9903,1.9982,1.9991,2.0017,2.0135,2.014,2.0048,2.0052,2.0055,2.0057,0,0,0,0,0,0,0,1.9715,1.9623,1.9831,1.9834,1.9835,1.9935,1.9937,1.9938,1.9913,1.991,1.9907,1.9905,2.0012,2.0018,2.0026,2.013,0,0,2.0047,2.005,0,0,0,0,0,0,0,0,1.9617,1.9621,1.9831,1.9833,1.9834,1.9935,1.9937,1.9938,1.9913,1.991,1.9908,1.9906,2.0013,2.0019,2.0025,0,0,0,0,0,0,0,0,0,0,0,0,0,0,0,1.9832,1.9833,0,1.9935,1.9937,1.9938,1.9913,1.9911,1.9909,1.9907,2.0015,2.002,2.0024,0,0,0,0,0,0,0,0,0,0,0,0,0,0,0,0,0,0,0,0,0,0,0,0,0,0,0,0,0,0,0,0,0,0,0,0,0,0,0,0,0,0,0,0,0,0,0,0,0,0,0,0,0,0,0,0,0,0,0,0,0,0,0,0,0,0,0,0,0]}]]]